Cherokee Observed Data For Previous 48 Hours

Caption
Day and Hour Reservoir Elevation (behind dam)* Tailwater Elevation (below dam)* Average Hourly Discharge*
4/22/2018 2 AM EDT 1,063.33 921.07 0
4/22/2018 3 AM EDT 1,063.36 921.06 0
4/22/2018 4 AM EDT 1,063.39 921.82 126
4/22/2018 5 AM EDT 1,063.42 921.50 2,047
4/22/2018 6 AM EDT 1,063.43 921.07 0
4/22/2018 7 AM EDT 1,063.47 921.06 0
4/22/2018 8 AM EDT 1,063.49 921.06 0
4/22/2018 9 AM EDT 1,063.52 921.06 0
4/22/2018 10 AM EDT 1,063.52 921.79 121
4/22/2018 11 AM EDT 1,063.55 921.49 2,039
4/22/2018 12 PM EDT 1,063.55 921.06 0
4/22/2018 1 PM EDT 1,063.57 921.06 0
4/22/2018 2 PM EDT 1,063.56 922.19 229
4/22/2018 3 PM EDT 1,063.56 926.27 8,249
4/22/2018 4 PM EDT 1,063.57 926.25 8,283
4/22/2018 5 PM EDT 1,063.57 926.31 8,292
4/22/2018 6 PM EDT 1,063.55 926.29 8,255
4/22/2018 7 PM EDT 1,063.54 926.27 8,243
4/22/2018 8 PM EDT 1,063.54 926.28 8,241
4/22/2018 9 PM EDT 1,063.56 926.30 8,279
4/22/2018 10 PM EDT 1,063.55 926.28 8,237
4/22/2018 11 PM EDT 1,063.54 926.26 8,231
4/23/2018 12 AM EDT 1,063.58 921.23 186
4/23/2018 1 AM EDT 1,063.59 921.06 0
4/23/2018 2 AM EDT 1,063.63 921.06 0
4/23/2018 3 AM EDT 1,063.67 921.06 0
4/23/2018 4 AM EDT 1,063.67 921.86 132
4/23/2018 5 AM EDT 1,063.69 924.00 3,719
4/23/2018 6 AM EDT 1,063.72 924.01 3,719
4/23/2018 7 AM EDT 1,063.76 924.02 3,707
4/23/2018 8 AM EDT 1,063.75 924.58 3,851
4/23/2018 9 AM EDT 1,063.76 926.28 8,182
4/23/2018 10 AM EDT 1,063.75 926.30 8,271
4/23/2018 11 AM EDT 1,063.77 921.47 1,983
4/23/2018 12 PM EDT 1,063.79 921.06 0
4/23/2018 1 PM EDT 1,063.79 921.06 0
4/23/2018 2 PM EDT 1,063.83 921.06 0
4/23/2018 3 PM EDT 1,063.85 923.48 569
4/23/2018 4 PM EDT 1,063.87 921.55 2,051
4/23/2018 5 PM EDT 1,063.89 921.06 0
4/23/2018 6 PM EDT 1,063.91 921.06 0
4/23/2018 7 PM EDT 1,063.91 921.06 0
4/23/2018 8 PM EDT 1,063.94 921.06 0
4/23/2018 9 PM EDT 1,063.95 923.49 572
4/23/2018 10 PM EDT 1,063.99 921.55 2,037
4/23/2018 11 PM EDT 1,064.01 921.06 0
4/24/2018 12 AM EDT 1,064.04 921.06 0
4/24/2018 1 AM EDT 1,064.06 921.06 0
4/24/2018 2 AM EDT 1,064.09 921.06 0
4/24/2018 3 AM EDT 1,064.09 921.83 126
4/24/2018 4 AM EDT 1,064.13 921.49 2,029
4/24/2018 5 AM EDT 1,064.15 921.06 0
4/24/2018 6 AM EDT 1,064.19 921.06 0
4/24/2018 7 AM EDT 1,064.20 921.06 0
4/24/2018 8 AM EDT 1,064.23 921.44 0
4/24/2018 9 AM EDT 1,064.24 921.82 126
4/24/2018 10 AM EDT 1,064.26 921.49 2,032
4/24/2018 11 AM EDT 1,064.31 921.06 0
4/24/2018 12 PM EDT 1,064.34 921.06 0
4/24/2018 1 PM EDT 1,064.36 921.06 0
4/24/2018 2 PM EDT 1,064.36 - 999.00 0
4/24/2018 3 PM EDT - 999.00 921.85 129
4/24/2018 4 PM EDT 1,064.41 921.50 2,047
4/24/2018 5 PM EDT 1,064.45 921.06 0
4/24/2018 6 PM EDT 1,064.50 921.06 0
4/24/2018 7 PM EDT 1,064.49 - 999.00 0
4/24/2018 8 PM EDT 1,064.57 - 999.00 0
4/24/2018 9 PM EDT 1,064.56 921.84 129
4/24/2018 10 PM EDT 1,064.64 921.50 2,024

Elevations are in feet above sea level. Discharges are in cubic feet per second and are reported at the end of the hour.